Weather in Oulu

Finland     65˚00′42″N   25˚28′32″E
temp.,
°C
wind,
m/s
gust,
m/s
humid.,
%
clouds,
%
prec.,
mm/h
press.,
hPa
HPBL,
m
29 november, sun
sun2923:00−2˚ssw588985 0.0 1030576
02:00−1˚ssw478893 0.1 1030532
05:00−1˚ssw4788100 0.0 1029539
08:00−1˚s4889100 0.0 1029545
11:00s5886100 0.0 1029551
14:00ssw4886100 0.0 1029531
17:00s5890100 0.1 1028582
20:00s5889100 0.2 1027580
30 november, mon
mon3023:00−1˚s5888100 0.1 1026653
02:00−2˚s5991100 0.1 1025465
05:00−2˚s51088100 0.1 1022506
08:00−3˚sse5109294 0.1 1021390
11:00−3˚sse6109262 0.0 1019416
14:00−3˚sse599267 0.0 1017420
17:00−1˚s598993 0.0 1014606
20:00s588996 0.0 1013588
1 december, tue
tue123:00−1˚s4891100 0.0 1012372
02:00−1˚s4893100 0.0 1012370
05:00s5992100 0.0 1011394
08:00s5994100 0.0 1011426
11:00ssw5997100 1.1 1011470
14:00+1˚s489398 1.4 1013315
17:00+1˚ssw4793100 0.1 1016383
20:00+1˚ssw228596 0.1 1019205
2 december, wed
wed223:00s118490 0.0 1021175
02:00se128492 0.0 1023176
05:00sse2387100 0.0 1023184
08:00s3489100 0.0 1023298
11:00s4690100 0.0 1023378
14:00s5888100 0.1 1023547
17:00−3˚sse599235 0.0 1022319
20:00−3˚s599346 0.0 1022367
3 december, thu
thu323:00−2˚s6119190 0.0 1022464
02:00−2˚s6119173 0.0 1022438
05:00+1˚s6138879 0.0 1022723
08:00+1˚s6138583 0.0 1022611
11:00s7118445 0.0 1023712
14:00−1˚sse6118366 0.0 1023580
17:00−2˚sse6128618 0.0 1023493
20:00−2˚sse5118723 0.0 1023437